Year,Month,Day,Hour,Minute,Value (Times are PST for windgust in km/hr)
2010,08,27,00,00,14.50
2010,08,27,00,01,19.30
2010,08,27,00,02,22.50
2010,08,27,00,03,19.30
2010,08,27,00,04,20.90
2010,08,27,00,05,22.50
2010,08,27,00,06,22.50
2010,08,27,00,07,22.50
2010,08,27,00,08,17.70
2010,08,27,00,09,27.40
2010,08,27,00,10,25.70
2010,08,27,00,11,24.20
2010,08,27,00,12,24.20
2010,08,27,00,13,14.50
2010,08,27,00,14,19.30
2010,08,27,00,15,25.70
2010,08,27,00,16,20.90
2010,08,27,00,17,22.50
2010,08,27,00,18,14.50
2010,08,27,00,19,19.30
2010,08,27,00,20,17.70
2010,08,27,00,21,24.20
2010,08,27,00,22,20.90
2010,08,27,00,23,19.30
2010,08,27,00,24,16.10
2010,08,27,00,25,25.70
2010,08,27,00,26,22.50
2010,08,27,00,27,22.50
2010,08,27,00,28,19.30
2010,08,27,00,29,16.10
2010,08,27,00,30,16.10
2010,08,27,00,31,16.10
2010,08,27,00,32,19.30
2010,08,27,00,33,19.30
2010,08,27,00,34,19.30
2010,08,27,00,35,22.50
2010,08,27,00,36,16.10
2010,08,27,00,37,17.70
2010,08,27,00,38,19.30
2010,08,27,00,39,11.30
2010,08,27,00,40,9.60
2010,08,27,00,41,14.50
2010,08,27,00,42,16.10
2010,08,27,00,43,17.70
2010,08,27,00,44,16.10
2010,08,27,00,45,25.70
2010,08,27,00,46,16.10
2010,08,27,00,47,30.60
2010,08,27,00,48,20.90
2010,08,27,00,49,16.10
2010,08,27,00,50,14.50
2010,08,27,00,51,17.70
2010,08,27,00,52,16.10
2010,08,27,00,53,17.70
2010,08,27,00,54,17.70
2010,08,27,00,55,14.50
2010,08,27,00,56,16.10
2010,08,27,00,57,11.30
2010,08,27,00,58,16.10
2010,08,27,00,59,16.10
2010,08,27,01,00,19.30
2010,08,27,01,01,8.10
2010,08,27,01,02,11.30
2010,08,27,01,03,11.30
2010,08,27,01,04,8.10
2010,08,27,01,05,11.30
2010,08,27,01,06,9.60
2010,08,27,01,07,9.60
2010,08,27,01,08,8.10
2010,08,27,01,09,14.50
2010,08,27,01,10,17.70
2010,08,27,01,11,11.30
2010,08,27,01,12,16.10
2010,08,27,01,13,9.60
2010,08,27,01,14,16.10
2010,08,27,01,15,17.70
2010,08,27,01,16,17.70
2010,08,27,01,17,14.50
2010,08,27,01,18,22.50
2010,08,27,01,19,11.30
2010,08,27,01,20,17.70
2010,08,27,01,21,22.50
2010,08,27,01,22,17.70
2010,08,27,01,23,16.10
2010,08,27,01,24,16.10
2010,08,27,01,25,20.90
2010,08,27,01,26,27.40
2010,08,27,01,27,20.90
2010,08,27,01,28,27.40
2010,08,27,01,29,27.40
2010,08,27,01,30,24.20
2010,08,27,01,31,20.90
2010,08,27,01,32,22.50
2010,08,27,01,33,17.70
2010,08,27,01,34,14.50
2010,08,27,01,35,22.50
2010,08,27,01,36,22.50
2010,08,27,01,37,22.50
2010,08,27,01,38,17.70
2010,08,27,01,39,19.30
2010,08,27,01,40,20.90
2010,08,27,01,41,19.30
2010,08,27,01,42,19.30
2010,08,27,01,43,9.60
2010,08,27,01,44,20.90
2010,08,27,01,45,16.10
2010,08,27,01,46,16.10
2010,08,27,01,47,22.50
2010,08,27,01,48,24.20
2010,08,27,01,49,17.70
2010,08,27,01,50,17.70
2010,08,27,01,51,14.50
2010,08,27,01,52,16.10
2010,08,27,01,53,20.90
2010,08,27,01,54,19.30
2010,08,27,01,55,20.90
2010,08,27,01,56,25.70
2010,08,27,01,57,20.90
2010,08,27,01,58,20.90
2010,08,27,01,59,33.80
2010,08,27,02,00,29.00
2010,08,27,02,01,17.70
2010,08,27,02,02,25.70
2010,08,27,02,03,29.00
2010,08,27,02,04,27.40
2010,08,27,02,05,24.20
2010,08,27,02,06,22.50
2010,08,27,02,07,20.90
2010,08,27,02,08,20.90
2010,08,27,02,09,19.30
2010,08,27,02,10,22.50
2010,08,27,02,11,24.20
2010,08,27,02,12,22.50
2010,08,27,02,13,20.90
2010,08,27,02,14,24.20
2010,08,27,02,15,20.90
2010,08,27,02,16,22.50
2010,08,27,02,17,17.70
2010,08,27,02,18,22.50
2010,08,27,02,19,25.70
2010,08,27,02,20,24.20
2010,08,27,02,21,25.70
2010,08,27,02,22,22.50
2010,08,27,02,23,19.30
2010,08,27,02,24,11.30
2010,08,27,02,25,16.10
2010,08,27,02,26,19.30
2010,08,27,02,27,19.30
2010,08,27,02,28,14.50
2010,08,27,02,29,19.30
2010,08,27,02,30,17.70
2010,08,27,02,31,22.50
2010,08,27,02,32,8.10
2010,08,27,02,33,14.50
2010,08,27,02,34,19.30
2010,08,27,02,35,22.50
2010,08,27,02,36,19.30
2010,08,27,02,37,25.70
2010,08,27,02,38,11.30
2010,08,27,02,39,8.10
2010,08,27,02,40,19.30
2010,08,27,02,41,22.50
2010,08,27,02,42,9.60
2010,08,27,02,43,20.90
2010,08,27,02,44,11.30
2010,08,27,02,45,11.30
2010,08,27,02,46,6.40
2010,08,27,02,47,3.20
2010,08,27,02,48,17.70
2010,08,27,02,49,14.50
2010,08,27,02,50,19.30
2010,08,27,02,51,17.70
2010,08,27,02,52,19.30
2010,08,27,02,53,17.70
2010,08,27,02,54,8.10
2010,08,27,02,55,24.20
2010,08,27,02,56,17.70
2010,08,27,02,57,12.90
2010,08,27,02,58,17.70
2010,08,27,02,59,19.30
2010,08,27,03,00,19.30
2010,08,27,03,01,27.40
2010,08,27,03,02,24.20
2010,08,27,03,03,22.50
2010,08,27,03,04,32.20
2010,08,27,03,05,30.60
2010,08,27,03,06,29.00
2010,08,27,03,07,32.20
2010,08,27,03,08,24.20
2010,08,27,03,09,20.90
2010,08,27,03,10,27.40
2010,08,27,03,11,25.70
2010,08,27,03,12,35.40
2010,08,27,03,13,29.00
2010,08,27,03,14,25.70
2010,08,27,03,15,22.50
2010,08,27,03,16,22.50
2010,08,27,03,17,29.00
2010,08,27,03,18,35.40
2010,08,27,03,19,19.30
2010,08,27,03,20,22.50
2010,08,27,03,21,24.20
2010,08,27,03,22,20.90
2010,08,27,03,23,16.10
2010,08,27,03,24,25.70
2010,08,27,03,25,22.50
2010,08,27,03,26,27.40
2010,08,27,03,27,27.40
2010,08,27,03,28,17.70
2010,08,27,03,29,19.30
2010,08,27,03,30,22.50
2010,08,27,03,31,16.10
2010,08,27,03,32,19.30
2010,08,27,03,33,22.50
2010,08,27,03,34,16.10
2010,08,27,03,35,14.50
2010,08,27,03,36,17.70
2010,08,27,03,37,12.90
2010,08,27,03,38,17.70
2010,08,27,03,39,19.30
2010,08,27,03,40,16.10
2010,08,27,03,41,19.30
2010,08,27,03,42,24.20
2010,08,27,03,43,22.50
2010,08,27,03,44,24.20
2010,08,27,03,45,22.50
2010,08,27,03,46,20.90
2010,08,27,03,47,16.10
2010,08,27,03,48,14.50
2010,08,27,03,49,22.50
2010,08,27,03,50,22.50
2010,08,27,03,51,16.10
2010,08,27,03,52,17.70
2010,08,27,03,53,24.20
2010,08,27,03,54,16.10
2010,08,27,03,55,16.10
2010,08,27,03,56,12.90
2010,08,27,03,57,20.90
2010,08,27,03,58,16.10
2010,08,27,03,59,16.10
2010,08,27,04,00,17.70
2010,08,27,04,01,17.70
2010,08,27,04,02,8.10
2010,08,27,04,03,11.30
2010,08,27,04,04,24.20
2010,08,27,04,05,6.40
2010,08,27,04,06,16.10
2010,08,27,04,07,11.30
2010,08,27,04,08,9.60
2010,08,27,04,09,14.50
2010,08,27,04,10,11.30
2010,08,27,04,11,9.60
2010,08,27,04,12,17.70
2010,08,27,04,13,14.50
2010,08,27,04,14,16.10
2010,08,27,04,15,14.50
2010,08,27,04,16,8.10
2010,08,27,04,17,6.40
2010,08,27,04,18,9.60
2010,08,27,04,19,4.80
2010,08,27,04,20,8.10
2010,08,27,04,21,6.40
2010,08,27,04,22,8.10
2010,08,27,04,23,24.20
2010,08,27,04,24,8.10
2010,08,27,04,25,6.40
2010,08,27,04,26,9.60
2010,08,27,04,27,9.60
2010,08,27,04,28,22.50
2010,08,27,04,29,19.30
2010,08,27,04,30,19.30
2010,08,27,04,31,11.30
2010,08,27,04,32,9.60
2010,08,27,04,33,11.30
2010,08,27,04,34,14.50
2010,08,27,04,35,17.70
2010,08,27,04,36,11.30
2010,08,27,04,37,14.50
2010,08,27,04,38,14.50
2010,08,27,04,39,6.40
2010,08,27,04,40,17.70
2010,08,27,04,41,17.70
2010,08,27,04,42,14.50
2010,08,27,04,43,12.90
2010,08,27,04,44,19.30
2010,08,27,04,45,11.30
2010,08,27,04,46,14.50
2010,08,27,04,47,14.50
2010,08,27,04,48,8.10
2010,08,27,04,49,11.30
2010,08,27,04,50,16.10
2010,08,27,04,51,12.90
2010,08,27,04,52,17.70
2010,08,27,04,53,9.60
2010,08,27,04,54,16.10
2010,08,27,04,55,17.70
2010,08,27,04,56,16.10
2010,08,27,04,57,11.30
2010,08,27,04,58,19.30
2010,08,27,04,59,9.60
2010,08,27,05,00,17.70
2010,08,27,05,01,14.50
2010,08,27,05,02,20.90
2010,08,27,05,03,20.90
2010,08,27,05,04,14.50
2010,08,27,05,05,14.50
2010,08,27,05,06,16.10
2010,08,27,05,07,9.60
2010,08,27,05,08,4.80
2010,08,27,05,09,8.10
2010,08,27,05,10,17.70
2010,08,27,05,11,11.30
2010,08,27,05,12,4.80
2010,08,27,05,13,14.50
2010,08,27,05,14,9.60
2010,08,27,05,15,11.30
2010,08,27,05,16,11.30
2010,08,27,05,17,4.80
2010,08,27,05,18,11.30
2010,08,27,05,19,9.60
2010,08,27,05,20,11.30
2010,08,27,05,21,20.90
2010,08,27,05,22,16.10
2010,08,27,05,23,6.40
2010,08,27,05,24,1.60
2010,08,27,05,25,6.40
2010,08,27,05,26,16.10
2010,08,27,05,27,9.60
2010,08,27,05,28,11.30
2010,08,27,05,29,11.30
2010,08,27,05,30,11.30
2010,08,27,05,31,11.30
2010,08,27,05,32,9.60
2010,08,27,05,33,8.10
2010,08,27,05,34,3.20
2010,08,27,05,35,8.10
2010,08,27,05,36,3.20
2010,08,27,05,37,4.80
2010,08,27,05,38,6.40
2010,08,27,05,39,8.10
2010,08,27,05,40,4.80
2010,08,27,05,41,6.40
2010,08,27,05,42,4.80
2010,08,27,05,43,3.20
2010,08,27,05,44,6.40
2010,08,27,05,45,6.40
2010,08,27,05,47,1.60
2010,08,27,05,49,3.20
2010,08,27,05,50,3.20
2010,08,27,05,56,1.60
2010,08,27,05,57,4.80
2010,08,27,05,58,6.40
2010,08,27,05,59,4.80
2010,08,27,06,00,1.60
2010,08,27,06,02,4.80
2010,08,27,06,03,3.20
2010,08,27,06,04,4.80
2010,08,27,06,05,4.80
2010,08,27,06,06,4.80
2010,08,27,06,07,4.80
2010,08,27,06,08,11.30
2010,08,27,06,09,6.40
2010,08,27,06,10,4.80
2010,08,27,06,11,4.80
2010,08,27,06,12,8.10
2010,08,27,06,13,4.80
2010,08,27,06,14,4.80
2010,08,27,06,15,8.10
2010,08,27,06,16,4.80
2010,08,27,06,18,1.60
2010,08,27,06,19,4.80
2010,08,27,06,20,8.10
2010,08,27,06,21,6.40
2010,08,27,06,22,6.40
2010,08,27,06,23,8.10
2010,08,27,06,24,6.40
2010,08,27,06,25,6.40
2010,08,27,06,26,3.20
2010,08,27,06,27,3.20
2010,08,27,06,28,4.80
2010,08,27,06,29,6.40
2010,08,27,06,30,6.40
2010,08,27,06,31,6.40
2010,08,27,06,32,4.80
2010,08,27,06,33,6.40
2010,08,27,06,34,4.80
2010,08,27,06,35,1.60
2010,08,27,06,36,3.20
2010,08,27,06,37,3.20
2010,08,27,06,38,4.80
2010,08,27,06,39,1.60
2010,08,27,06,50,4.80
2010,08,27,06,51,3.20
2010,08,27,06,52,4.80
2010,08,27,06,53,3.20
2010,08,27,06,54,3.20
2010,08,27,06,55,4.80
2010,08,27,06,56,3.20
2010,08,27,06,58,1.60
2010,08,27,06,59,3.20
2010,08,27,07,00,1.60
2010,08,27,07,01,3.20
2010,08,27,07,02,3.20
2010,08,27,07,03,3.20
2010,08,27,07,04,1.60
2010,08,27,07,05,1.60
2010,08,27,07,06,1.60
2010,08,27,07,07,1.60
2010,08,27,07,08,1.60
2010,08,27,07,09,1.60
2010,08,27,07,10,4.80
2010,08,27,07,11,4.80
2010,08,27,07,12,6.40
2010,08,27,07,13,3.20
2010,08,27,07,14,1.60
2010,08,27,07,15,3.20
2010,08,27,07,16,6.40
2010,08,27,07,18,6.40
2010,08,27,07,19,3.20
2010,08,27,07,20,4.80
2010,08,27,07,21,3.20
2010,08,27,07,22,9.60
2010,08,27,07,23,8.10
2010,08,27,07,24,6.40
2010,08,27,07,25,8.10
2010,08,27,07,26,11.30
2010,08,27,07,27,14.50
2010,08,27,07,28,22.50
2010,08,27,07,29,12.90
2010,08,27,07,30,6.40
2010,08,27,07,31,6.40
2010,08,27,07,32,4.80
2010,08,27,07,33,8.10
2010,08,27,07,34,4.80
2010,08,27,07,35,9.60
2010,08,27,07,36,8.10
2010,08,27,07,37,6.40
2010,08,27,07,38,8.10
2010,08,27,07,39,6.40
2010,08,27,07,40,8.10
2010,08,27,07,41,4.80
2010,08,27,07,42,11.30
2010,08,27,07,43,11.30
2010,08,27,07,44,9.60
2010,08,27,07,45,6.40
2010,08,27,07,46,9.60
2010,08,27,07,47,3.20
2010,08,27,07,48,3.20
2010,08,27,07,49,8.10
2010,08,27,07,50,11.30
2010,08,27,07,51,11.30
2010,08,27,07,52,9.60
2010,08,27,07,53,3.20
2010,08,27,07,54,4.80
2010,08,27,07,55,3.20
2010,08,27,07,56,8.10
2010,08,27,07,57,4.80
2010,08,27,07,58,4.80
2010,08,27,07,59,9.60
2010,08,27,08,00,11.30
2010,08,27,08,01,11.30
2010,08,27,08,02,8.10
2010,08,27,08,03,6.40
2010,08,27,08,04,12.90
2010,08,27,08,05,8.10
2010,08,27,08,06,8.10
2010,08,27,08,07,6.40
2010,08,27,08,08,6.40
2010,08,27,08,09,4.80
2010,08,27,08,10,4.80
2010,08,27,08,11,6.40
2010,08,27,08,12,6.40
2010,08,27,08,13,8.10
2010,08,27,08,14,3.20
2010,08,27,08,15,8.10
2010,08,27,08,16,9.60
2010,08,27,08,17,11.30
2010,08,27,08,18,11.30
2010,08,27,08,19,9.60
2010,08,27,08,20,9.60
2010,08,27,08,21,11.30
2010,08,27,08,22,11.30
2010,08,27,08,23,9.60
2010,08,27,08,24,9.60
2010,08,27,08,25,9.60
2010,08,27,08,26,6.40
2010,08,27,08,27,9.60
2010,08,27,08,28,6.40
2010,08,27,08,29,6.40
2010,08,27,08,30,4.80
2010,08,27,08,31,6.40
2010,08,27,08,32,6.40
2010,08,27,08,33,9.60
2010,08,27,08,34,6.40
2010,08,27,08,35,8.10
2010,08,27,08,36,6.40
2010,08,27,08,37,6.40
2010,08,27,08,38,6.40
2010,08,27,08,39,6.40
2010,08,27,08,40,6.40
2010,08,27,08,41,14.50
2010,08,27,08,42,9.60
2010,08,27,08,43,9.60
2010,08,27,08,44,8.10
2010,08,27,08,45,6.40
2010,08,27,08,46,6.40
2010,08,27,08,47,8.10
2010,08,27,08,48,6.40
2010,08,27,08,49,11.30
2010,08,27,08,50,8.10
2010,08,27,08,51,11.30
2010,08,27,08,52,6.40
2010,08,27,08,53,11.30
2010,08,27,08,54,9.60
2010,08,27,08,55,9.60
2010,08,27,08,56,11.30
2010,08,27,08,57,17.70
2010,08,27,08,58,6.40
2010,08,27,08,59,11.30
2010,08,27,09,00,11.30
2010,08,27,09,01,14.50
2010,08,27,09,02,9.60
2010,08,27,09,03,16.10
2010,08,27,09,04,16.10
2010,08,27,09,05,14.50
2010,08,27,09,06,16.10
2010,08,27,09,07,11.30
2010,08,27,09,08,17.70
2010,08,27,09,09,16.10
2010,08,27,09,10,8.10
2010,08,27,09,11,3.20
2010,08,27,09,12,9.60
2010,08,27,09,13,11.30
2010,08,27,09,14,9.60
2010,08,27,09,15,9.60
2010,08,27,09,16,6.40
2010,08,27,09,17,9.60
2010,08,27,09,18,8.10
2010,08,27,09,19,6.40
2010,08,27,09,20,8.10
2010,08,27,09,21,8.10
2010,08,27,09,22,11.30
2010,08,27,09,23,8.10
2010,08,27,09,24,9.60
2010,08,27,09,25,8.10
2010,08,27,09,26,11.30
2010,08,27,09,27,4.80
2010,08,27,09,28,6.40
2010,08,27,09,29,12.90
2010,08,27,09,30,8.10
2010,08,27,09,31,9.60
2010,08,27,09,32,17.70
2010,08,27,09,33,14.50
2010,08,27,09,34,17.70
2010,08,27,09,35,11.30
2010,08,27,09,36,9.60
2010,08,27,09,37,14.50
2010,08,27,09,38,9.60
2010,08,27,09,39,16.10
2010,08,27,09,40,14.50
2010,08,27,09,41,14.50
2010,08,27,09,42,9.60
2010,08,27,09,43,8.10
2010,08,27,09,44,17.70
2010,08,27,09,45,19.30
2010,08,27,09,46,16.10
2010,08,27,09,47,9.60
2010,08,27,09,48,12.90
2010,08,27,09,49,17.70
2010,08,27,09,50,16.10
2010,08,27,09,51,14.50
2010,08,27,09,52,11.30
2010,08,27,09,53,14.50
2010,08,27,09,54,9.60
2010,08,27,09,55,14.50
2010,08,27,09,56,19.30
2010,08,27,09,57,17.70
2010,08,27,09,58,20.90
2010,08,27,09,59,14.50
2010,08,27,10,00,17.70
2010,08,27,10,01,29.00
2010,08,27,10,02,19.30
2010,08,27,10,03,19.30
2010,08,27,10,04,11.30
2010,08,27,10,05,16.10
2010,08,27,10,06,17.70
2010,08,27,10,07,16.10
2010,08,27,10,08,14.50
2010,08,27,10,09,19.30
2010,08,27,10,10,9.60
2010,08,27,10,11,16.10
2010,08,27,10,12,19.30
2010,08,27,10,13,20.90
2010,08,27,10,14,20.90
2010,08,27,10,15,17.70
2010,08,27,10,16,14.50
2010,08,27,10,17,19.30
2010,08,27,10,18,17.70
2010,08,27,10,19,17.70
2010,08,27,10,20,16.10
2010,08,27,10,21,19.30
2010,08,27,10,22,20.90
2010,08,27,10,23,12.90
2010,08,27,10,24,16.10
2010,08,27,10,25,19.30
2010,08,27,10,26,16.10
2010,08,27,10,27,22.50
2010,08,27,10,28,22.50
2010,08,27,10,29,11.30
2010,08,27,10,30,14.50
2010,08,27,10,31,19.30
2010,08,27,10,32,17.70
2010,08,27,10,33,14.50
2010,08,27,10,34,19.30
2010,08,27,10,35,24.20
2010,08,27,10,36,20.90
2010,08,27,10,37,12.90
2010,08,27,10,38,19.30
2010,08,27,10,39,19.30
2010,08,27,10,40,17.70
2010,08,27,10,41,17.70
2010,08,27,10,42,20.90
2010,08,27,10,43,17.70
2010,08,27,10,44,22.50
2010,08,27,10,45,20.90
2010,08,27,10,46,11.30
2010,08,27,10,47,16.10
2010,08,27,10,48,20.90
2010,08,27,10,49,20.90
2010,08,27,10,50,19.30
2010,08,27,10,51,20.90
2010,08,27,10,52,19.30
2010,08,27,10,53,16.10
2010,08,27,10,54,16.10
2010,08,27,10,55,19.30
2010,08,27,10,56,19.30
2010,08,27,10,57,17.70
2010,08,27,10,58,24.20
2010,08,27,10,59,20.90
2010,08,27,11,00,20.90
2010,08,27,11,01,19.30
2010,08,27,11,02,22.50
2010,08,27,11,03,25.70
2010,08,27,11,04,17.70
2010,08,27,11,05,20.90
2010,08,27,11,06,16.10
2010,08,27,11,07,20.90
2010,08,27,11,08,22.50
2010,08,27,11,09,24.20
2010,08,27,11,10,22.50
2010,08,27,11,11,22.50
2010,08,27,11,12,19.30
2010,08,27,11,13,25.70
2010,08,27,11,14,27.40
2010,08,27,11,15,27.40
2010,08,27,11,16,29.00
2010,08,27,11,17,29.00
2010,08,27,11,18,22.50
2010,08,27,11,19,24.20
2010,08,27,11,20,24.20
2010,08,27,11,21,25.70
2010,08,27,11,22,19.30
2010,08,27,11,23,24.20
2010,08,27,11,24,19.30
2010,08,27,11,25,27.40
2010,08,27,11,26,17.70
2010,08,27,11,27,25.70
2010,08,27,11,28,24.20
2010,08,27,11,29,11.30
2010,08,27,11,30,17.70
2010,08,27,11,31,20.90
2010,08,27,11,32,19.30
2010,08,27,11,33,22.50
2010,08,27,11,34,12.90
2010,08,27,11,35,17.70
2010,08,27,11,36,16.10
2010,08,27,11,37,9.60
2010,08,27,11,38,11.30
2010,08,27,11,39,24.20
2010,08,27,11,40,20.90
2010,08,27,11,41,20.90
2010,08,27,11,42,16.10
2010,08,27,11,43,20.90
2010,08,27,11,44,19.30
2010,08,27,11,45,22.50
2010,08,27,11,46,24.20
2010,08,27,11,47,22.50
2010,08,27,11,48,22.50
2010,08,27,11,49,11.30
2010,08,27,11,50,22.50
2010,08,27,11,51,17.70
2010,08,27,11,52,16.10
2010,08,27,11,53,8.10
2010,08,27,11,54,8.10
2010,08,27,11,55,9.60
2010,08,27,11,56,11.30
2010,08,27,11,57,19.30
2010,08,27,11,58,17.70
2010,08,27,11,59,17.70
2010,08,27,12,00,17.70
2010,08,27,12,01,22.50
2010,08,27,12,02,19.30
2010,08,27,12,03,14.50
2010,08,27,12,04,9.60
2010,08,27,12,05,19.30
2010,08,27,12,06,16.10
2010,08,27,12,07,20.90
2010,08,27,12,08,20.90
2010,08,27,12,09,20.90
2010,08,27,12,10,22.50
2010,08,27,12,11,27.40
2010,08,27,12,12,19.30
2010,08,27,12,13,22.50
2010,08,27,12,14,17.70
2010,08,27,12,15,17.70
2010,08,27,12,16,25.70
2010,08,27,12,17,33.80
2010,08,27,12,18,24.20
2010,08,27,12,19,22.50
2010,08,27,12,20,27.40
2010,08,27,12,21,14.50
2010,08,27,12,22,19.30
2010,08,27,12,23,20.90
2010,08,27,12,24,17.70
2010,08,27,12,25,20.90
2010,08,27,12,26,19.30
2010,08,27,12,27,24.20
2010,08,27,12,28,29.00
2010,08,27,12,29,29.00
2010,08,27,12,30,16.10
2010,08,27,12,31,25.70
2010,08,27,12,32,20.90
2010,08,27,12,33,16.10
2010,08,27,12,34,14.50
2010,08,27,12,35,22.50
2010,08,27,12,36,14.50
2010,08,27,12,37,14.50
2010,08,27,12,38,9.60
2010,08,27,12,39,17.70
2010,08,27,12,40,9.60
2010,08,27,12,41,8.10
2010,08,27,12,42,4.80
2010,08,27,12,43,3.20
2010,08,27,12,44,11.30
2010,08,27,12,45,9.60
2010,08,27,12,46,6.40
2010,08,27,12,47,9.60
2010,08,27,12,48,9.60
2010,08,27,12,49,8.10
2010,08,27,12,50,6.40
2010,08,27,12,51,6.40
2010,08,27,12,52,4.80
2010,08,27,12,53,8.10
2010,08,27,12,54,8.10
2010,08,27,12,55,9.60
2010,08,27,12,56,11.30
2010,08,27,12,57,8.10
2010,08,27,12,58,8.10
2010,08,27,12,59,14.50
2010,08,27,13,00,14.50
2010,08,27,13,01,16.10
2010,08,27,13,02,3.20
2010,08,27,13,03,11.30
2010,08,27,13,04,16.10
2010,08,27,13,05,19.30
2010,08,27,13,06,11.30
2010,08,27,13,07,6.40
2010,08,27,13,08,8.10
2010,08,27,13,09,8.10
2010,08,27,13,10,12.90
2010,08,27,13,11,17.70
2010,08,27,13,12,14.50
2010,08,27,13,13,19.30
2010,08,27,13,14,17.70
2010,08,27,13,15,17.70
2010,08,27,13,16,19.30
2010,08,27,13,17,25.70
2010,08,27,13,18,17.70
2010,08,27,13,19,17.70
2010,08,27,13,20,16.10
2010,08,27,13,21,19.30
2010,08,27,13,22,16.10
2010,08,27,13,23,19.30
2010,08,27,13,24,20.90
2010,08,27,13,25,20.90
2010,08,27,13,26,20.90
2010,08,27,13,27,19.30
2010,08,27,13,28,29.00
2010,08,27,13,29,19.30
2010,08,27,13,30,14.50
2010,08,27,13,31,25.70
2010,08,27,13,32,16.10
2010,08,27,13,33,19.30
2010,08,27,13,34,22.50
2010,08,27,13,35,17.70
2010,08,27,13,36,22.50
2010,08,27,13,37,24.20
2010,08,27,13,38,11.30
2010,08,27,13,39,9.60
2010,08,27,13,40,14.50
2010,08,27,13,41,22.50
2010,08,27,13,42,17.70
2010,08,27,13,43,14.50
2010,08,27,13,44,17.70
2010,08,27,13,45,14.50
2010,08,27,13,46,17.70
2010,08,27,13,47,17.70
2010,08,27,13,48,17.70
2010,08,27,13,49,16.10
2010,08,27,13,50,16.10
2010,08,27,13,51,14.50
2010,08,27,13,52,14.50
2010,08,27,13,53,16.10
2010,08,27,13,54,20.90
2010,08,27,13,55,20.90
2010,08,27,13,56,20.90
2010,08,27,13,57,17.70
2010,08,27,13,58,17.70
2010,08,27,13,59,22.50
2010,08,27,14,00,16.10
2010,08,27,14,01,11.30
2010,08,27,14,02,9.60
2010,08,27,14,03,16.10
2010,08,27,14,04,12.90
2010,08,27,14,05,19.30
2010,08,27,14,06,12.90
2010,08,27,14,07,11.30
2010,08,27,14,08,20.90
2010,08,27,14,09,19.30
2010,08,27,14,10,17.70
2010,08,27,14,11,16.10
2010,08,27,14,12,16.10
2010,08,27,14,13,14.50
2010,08,27,14,14,14.50
2010,08,27,14,15,6.40
2010,08,27,14,16,6.40
2010,08,27,14,20,3.20
2010,08,27,14,21,1.60
2010,08,27,14,22,1.60
2010,08,27,14,26,1.60
2010,08,27,14,28,3.20
2010,08,27,14,29,1.60
2010,08,27,14,31,1.60
2010,08,27,14,33,1.60
2010,08,27,14,34,1.60
2010,08,27,14,35,1.60
2010,08,27,14,38,1.60
2010,08,27,14,40,1.60
2010,08,27,14,41,1.60
2010,08,27,14,42,6.40
2010,08,27,14,43,6.40
2010,08,27,14,44,4.80
2010,08,27,14,45,1.60
2010,08,27,14,46,3.20
2010,08,27,14,47,9.60
2010,08,27,14,48,8.10
2010,08,27,14,49,6.40
2010,08,27,14,50,4.80
2010,08,27,14,51,11.30
2010,08,27,14,52,11.30
2010,08,27,14,53,8.10
2010,08,27,14,54,9.60
2010,08,27,14,55,4.80
2010,08,27,14,56,8.10
2010,08,27,14,57,6.40
2010,08,27,14,58,9.60
2010,08,27,14,59,14.50
2010,08,27,15,00,11.30
2010,08,27,15,01,14.50
2010,08,27,15,02,8.10
2010,08,27,15,03,17.70
2010,08,27,15,04,9.60
2010,08,27,15,05,8.10
2010,08,27,15,06,9.60
2010,08,27,15,07,14.50
2010,08,27,15,08,9.60
2010,08,27,15,09,9.60
2010,08,27,15,10,12.90
2010,08,27,15,11,14.50
2010,08,27,15,12,16.10
2010,08,27,15,13,11.30
2010,08,27,15,14,9.60
2010,08,27,15,15,9.60
2010,08,27,15,16,9.60
2010,08,27,15,17,4.80
2010,08,27,15,18,16.10
2010,08,27,15,19,16.10
2010,08,27,15,20,19.30
2010,08,27,15,21,16.10
2010,08,27,15,22,16.10
2010,08,27,15,23,9.60
2010,08,27,15,24,11.30
2010,08,27,15,25,24.20
2010,08,27,15,26,22.50
2010,08,27,15,27,20.90
2010,08,27,15,28,20.90
2010,08,27,15,29,19.30
2010,08,27,15,30,20.90
2010,08,27,15,31,20.90
2010,08,27,15,32,19.30
2010,08,27,15,33,9.60
2010,08,27,15,34,17.70
2010,08,27,15,35,20.90
2010,08,27,15,36,24.20
2010,08,27,15,37,22.50
2010,08,27,15,38,19.30
2010,08,27,15,39,20.90
2010,08,27,15,40,17.70
2010,08,27,15,41,17.70
2010,08,27,15,42,19.30
2010,08,27,15,43,8.10
2010,08,27,15,44,14.50
2010,08,27,15,45,16.10
2010,08,27,15,46,16.10
2010,08,27,15,47,16.10
2010,08,27,15,48,11.30
2010,08,27,15,49,16.10
2010,08,27,15,50,16.10
2010,08,27,15,51,12.90
2010,08,27,15,52,17.70
2010,08,27,15,53,11.30
2010,08,27,15,54,22.50
2010,08,27,15,55,22.50
2010,08,27,15,56,20.90
2010,08,27,15,57,20.90
2010,08,27,15,58,17.70
2010,08,27,15,59,17.70
2010,08,27,16,00,16.10
2010,08,27,16,01,11.30
2010,08,27,16,02,20.90
2010,08,27,16,03,11.30
2010,08,27,16,04,8.10
2010,08,27,16,05,17.70
2010,08,27,16,06,17.70
2010,08,27,16,07,9.60
2010,08,27,16,08,8.10
2010,08,27,16,09,6.40
2010,08,27,16,10,3.20
2010,08,27,16,11,16.10
2010,08,27,16,12,14.50
2010,08,27,16,13,6.40
2010,08,27,16,14,16.10
2010,08,27,16,15,16.10
2010,08,27,16,16,17.70
2010,08,27,16,17,19.30
2010,08,27,16,18,17.70
2010,08,27,16,19,17.70
2010,08,27,16,20,14.50
2010,08,27,16,21,11.30
2010,08,27,16,22,14.50
2010,08,27,16,23,11.30
2010,08,27,16,24,14.50
2010,08,27,16,25,16.10
2010,08,27,16,26,16.10
2010,08,27,16,27,17.70
2010,08,27,16,28,11.30
2010,08,27,16,29,16.10
2010,08,27,16,30,9.60
2010,08,27,16,31,19.30
2010,08,27,16,32,14.50
2010,08,27,16,33,8.10
2010,08,27,16,34,11.30
2010,08,27,16,35,16.10
2010,08,27,16,36,16.10
2010,08,27,16,37,17.70
2010,08,27,16,38,9.60
2010,08,27,16,39,14.50
2010,08,27,16,40,14.50
2010,08,27,16,41,3.20
2010,08,27,16,42,8.10
2010,08,27,16,43,12.90
2010,08,27,16,44,9.60
2010,08,27,16,45,16.10
2010,08,27,16,46,14.50
2010,08,27,16,47,11.30
2010,08,27,16,48,11.30
2010,08,27,16,49,8.10
2010,08,27,16,50,6.40
2010,08,27,16,51,9.60
2010,08,27,16,52,11.30
2010,08,27,16,53,11.30
2010,08,27,16,54,8.10
2010,08,27,16,55,4.80
2010,08,27,16,56,8.10
2010,08,27,16,57,9.60
2010,08,27,16,58,6.40
2010,08,27,16,59,6.40
2010,08,27,17,00,8.10
2010,08,27,17,01,4.80
2010,08,27,17,02,3.20
2010,08,27,17,03,3.20
2010,08,27,17,04,8.10
2010,08,27,17,05,6.40
2010,08,27,17,06,12.90
2010,08,27,17,07,12.90
2010,08,27,17,08,6.40
2010,08,27,17,09,9.60
2010,08,27,17,10,6.40
2010,08,27,17,11,11.30
2010,08,27,17,12,8.10
2010,08,27,17,13,8.10
2010,08,27,17,14,3.20
2010,08,27,17,15,11.30
2010,08,27,17,16,11.30
2010,08,27,17,17,9.60
2010,08,27,17,18,8.10
2010,08,27,17,19,11.30
2010,08,27,17,20,11.30
2010,08,27,17,21,8.10
2010,08,27,17,22,6.40
2010,08,27,17,23,6.40
2010,08,27,17,24,6.40
2010,08,27,17,25,4.80
2010,08,27,17,26,6.40
2010,08,27,17,27,12.90
2010,08,27,17,28,8.10
2010,08,27,17,29,6.40
2010,08,27,17,30,4.80
2010,08,27,17,31,9.60
2010,08,27,17,32,9.60
2010,08,27,17,33,6.40
2010,08,27,17,34,9.60
2010,08,27,17,35,9.60
2010,08,27,17,36,9.60
2010,08,27,17,37,4.80
2010,08,27,17,38,9.60
2010,08,27,17,39,9.60
2010,08,27,17,40,9.60
2010,08,27,17,41,16.10
2010,08,27,17,42,11.30
2010,08,27,17,43,9.60
2010,08,27,17,44,11.30
2010,08,27,17,45,8.10
2010,08,27,17,46,9.60
2010,08,27,17,47,6.40
2010,08,27,17,48,6.40
2010,08,27,17,49,6.40
2010,08,27,17,50,6.40
2010,08,27,17,51,6.40
2010,08,27,17,52,8.10
2010,08,27,17,53,8.10
2010,08,27,17,54,8.10
2010,08,27,17,55,8.10
2010,08,27,17,56,8.10
2010,08,27,17,57,8.10
2010,08,27,17,58,6.40
2010,08,27,17,59,6.40
2010,08,27,18,00,9.60
2010,08,27,18,01,14.50
2010,08,27,18,02,14.50
2010,08,27,18,03,9.60
2010,08,27,18,04,9.60
2010,08,27,18,05,14.50
2010,08,27,18,06,16.10
2010,08,27,18,07,14.50
2010,08,27,18,08,11.30